Location: Brede
(50.9167°N, 0.6000°E)
Time: 19:30:34
(UTC+00:00)

Vanguard 1 Rocket - Pass Details

Date: 04 December 2020
Orbit: 655 x 4221 km, 34.3° (Epoch: 17 January)

Event Time Altitude Azimuth Distance (km) Brightness Sun altitude
Rises 22:02:22 0° 203° (SSW) 7,347 11.9 -54.8°
Enters shadow 22:05:18 - 198° (SSW) 7,008 11.7 -55.2°
Exits shadow 22:47:52 - 89° (E) 7,132 11.8 -59.2°
Sets 22:51:51 0° 83° (E) 7,605 12.0 -59.4°
